User: anonymous   Login
Location: Hokitika
(42.7170°S, 170.9670°E)
Time: 08:44:11
(UTC+13:00)
Language:

ERBS - Orbit

View from above orbital plane
View from above orbital plane
View from above satellite
View from above satellite

Ground track
Ground track

The orbit data is extracted from the following two-line orbital elements,

1 15354U 84108B   19078.55434711 +.00002687 +00000-0 +59867-4 0  9996
2 15354 057.0055 253.0041 0004991 229.0831 130.9794 15.47332818896946
Epoch (UTC): 19 March 2019 13:18:15
Eccentricity: 0.0004991
inclination: 57.0055°
perigee height: 421 km
apogee height: 428 km
right ascension of ascending node: 253.0041°
argument of perigee: 229.0831°
revolutions per day: 15.47332818
mean anomaly at epoch: 130.9794°
orbit number at epoch: 89694

The dashed part of the orbit path shows where the satellite is in the earth's shadow,  

DLR